Time,TemperatureF,DewpointF,PressureIn,WindDirection,WindDirectionDegrees,WindSpeedMPH,WindSpeedGustMPH,Humidity,HourlyPrecipIn,Conditions,Clouds,dailyrainin,SoftwareType,DateUTC
2013-06-23 00:00:00,68.1,58.3,30.16,SSW,198,1.0,1.0,71,0.00,,,0.00,Wunderground v.1.15,2013-06-23 04:00:00,
2013-06-23 00:05:00,68.0,58.2,30.16,WNW,283,1.0,1.0,71,0.00,,,0.00,Wunderground v.1.15,2013-06-23 04:05:00,
2013-06-23 00:10:00,67.9,58.1,30.16,WSW,240,1.0,1.0,71,0.00,,,0.00,Wunderground v.1.15,2013-06-23 04:10:00,
2013-06-23 00:15:00,67.9,58.1,30.16,West,262,1.0,1.0,71,0.00,,,0.00,Wunderground v.1.15,2013-06-23 04:15:00,
2013-06-23 00:20:00,67.8,58.1,30.16,NW,323,1.0,1.0,71,0.00,,,0.00,Wunderground v.1.15,2013-06-23 04:20:00,
2013-06-23 00:25:00,67.8,58.1,30.17,SW,228,1.0,1.0,71,0.00,,,0.00,Wunderground v.1.15,2013-06-23 04:25:00,
2013-06-23 00:30:00,67.6,58.6,30.17,SSE,167,0.0,1.0,73,0.00,,,0.00,Wunderground v.1.15,2013-06-23 04:30:00,
2013-06-23 00:35:00,67.4,57.7,30.17,WNW,297,0.0,1.0,71,0.00,,,0.00,Wunderground v.1.15,2013-06-23 04:35:00,
2013-06-23 00:40:00,67.4,57.7,30.17,SE,142,0.0,0.0,71,0.00,,,0.00,Wunderground v.1.15,2013-06-23 04:40:00,
2013-06-23 00:45:00,67.3,57.6,30.17,SSE,153,0.0,0.0,71,0.00,,,0.00,Wunderground v.1.15,2013-06-23 04:45:00,
2013-06-23 00:55:00,67.2,57.5,30.17,SW,226,0.0,1.0,71,0.00,,,0.00,Wunderground v.1.15,2013-06-23 04:55:00,
2013-06-23 01:00:00,67.2,57.5,30.17,West,276,0.0,0.0,71,0.00,,,0.00,Wunderground v.1.15,2013-06-23 05:00:00,
2013-06-23 01:05:00,67.1,57.8,30.17,West,277,0.0,0.0,72,0.00,,,0.00,Wunderground v.1.15,2013-06-23 05:05:00,
2013-06-23 01:10:00,67.0,57.7,30.18,West,277,0.0,0.0,72,0.00,,,0.00,Wunderground v.1.15,2013-06-23 05:10:00,
2013-06-23 01:15:00,66.9,58.0,30.17,WSW,257,0.0,0.0,73,0.00,,,0.00,Wunderground v.1.15,2013-06-23 05:15:00,
2013-06-23 01:25:00,66.6,57.7,30.17,WSW,257,0.0,0.0,73,0.00,,,0.00,Wunderground v.1.15,2013-06-23 05:25:00,
2013-06-23 01:35:00,66.0,57.5,30.17,WSW,257,0.0,0.0,74,0.00,,,0.00,Wunderground v.1.15,2013-06-23 05:35:00,
2013-06-23 01:40:00,65.9,57.4,30.17,SW,218,0.0,1.0,74,0.00,,,0.00,Wunderground v.1.15,2013-06-23 05:40:00,
2013-06-23 01:45:00,66.0,57.5,30.17,South,188,1.0,1.0,74,0.00,,,0.00,Wunderground v.1.15,2013-06-23 05:45:00,
2013-06-23 01:50:00,66.2,57.7,30.17,SW,226,0.0,0.0,74,0.00,,,0.00,Wunderground v.1.15,2013-06-23 05:50:00,
2013-06-23 02:00:00,66.3,57.8,30.17,WSW,240,0.0,0.0,74,0.00,,,0.00,Wunderground v.1.15,2013-06-23 06:00:00,
2013-06-23 02:05:00,66.2,57.7,30.17,WSW,240,0.0,0.0,74,0.00,,,0.00,Wunderground v.1.15,2013-06-23 06:05:00,
2013-06-23 02:10:00,66.0,57.8,30.17,SW,232,0.0,0.0,75,0.00,,,0.00,Wunderground v.1.15,2013-06-23 06:10:00,
2013-06-23 02:15:00,65.9,57.4,30.17,SW,226,0.0,1.0,74,0.00,,,0.00,Wunderground v.1.15,2013-06-23 06:15:00,
2013-06-23 02:20:00,65.9,57.4,30.17,SSW,207,0.0,1.0,74,0.00,,,0.00,Wunderground v.1.15,2013-06-23 06:20:00,
2013-06-23 02:25:00,65.8,57.3,30.17,SSW,210,0.0,1.0,74,0.00,,,0.00,Wunderground v.1.15,2013-06-23 06:25:00,
2013-06-23 02:30:00,65.8,57.3,30.17,WSW,238,0.0,0.0,74,0.00,,,0.00,Wunderground v.1.15,2013-06-23 06:30:00,
2013-06-23 02:35:00,65.6,57.5,30.17,SSW,204,0.0,0.0,75,0.00,,,0.00,Wunderground v.1.15,2013-06-23 06:35:00,
2013-06-23 02:40:00,65.5,57.4,30.17,West,281,0.0,0.0,75,0.00,,,0.00,Wunderground v.1.15,2013-06-23 06:40:00,
2013-06-23 02:45:00,65.3,57.2,30.16,WNW,285,0.0,0.0,75,0.00,,,0.00,Wunderground v.1.15,2013-06-23 06:45:00,
2013-06-23 02:50:00,65.2,57.4,30.16,SW,219,0.0,1.0,76,0.00,,,0.00,Wunderground v.1.15,2013-06-23 06:50:00,
2013-06-23 02:55:00,65.0,57.2,30.16,SW,219,0.0,1.0,76,0.00,,,0.00,Wunderground v.1.15,2013-06-23 06:55:00,
2013-06-23 03:00:00,64.9,57.5,30.16,WSW,249,0.0,0.0,77,0.00,,,0.00,Wunderground v.1.15,2013-06-23 07:00:00,
2013-06-23 03:10:00,64.7,57.7,30.16,SSW,200,0.0,0.0,78,0.00,,,0.00,Wunderground v.1.15,2013-06-23 07:10:00,
2013-06-23 03:20:00,64.5,57.8,30.16,SSW,200,0.0,0.0,79,0.00,,,0.00,Wunderground v.1.15,2013-06-23 07:20:00,
2013-06-23 03:25:00,64.5,57.8,30.16,SSW,200,0.0,0.0,79,0.00,,,0.00,Wunderground v.1.15,2013-06-23 07:25:00,
2013-06-23 03:30:00,64.4,57.7,30.16,SSW,200,0.0,0.0,79,0.00,,,0.00,Wunderground v.1.15,2013-06-23 07:30:00,
2013-06-23 03:35:00,64.2,57.5,30.16,SSW,200,0.0,0.0,79,0.00,,,0.00,Wunderground v.1.15,2013-06-23 07:35:00,
2013-06-23 03:45:00,63.9,57.6,30.16,SSW,200,0.0,0.0,80,0.00,,,0.00,Wunderground v.1.15,2013-06-23 07:45:00,
2013-06-23 03:50:00,63.8,57.9,30.16,SSW,212,0.0,0.0,81,0.00,,,0.00,Wunderground v.1.15,2013-06-23 07:50:00,
2013-06-23 03:55:00,63.8,57.9,30.16,SSW,212,0.0,0.0,81,0.00,,,0.00,Wunderground v.1.15,2013-06-23 07:55:00,
2013-06-23 04:00:00,63.7,58.1,30.16,SSW,212,0.0,0.0,82,0.00,,,0.00,Wunderground v.1.15,2013-06-23 08:00:00,
2013-06-23 04:05:00,63.6,58.0,30.16,SSW,212,0.0,0.0,82,0.00,,,0.00,Wunderground v.1.15,2013-06-23 08:05:00,
2013-06-23 04:15:00,63.5,58.2,30.15,SW,232,0.0,0.0,83,0.00,,,0.00,Wunderground v.1.15,2013-06-23 08:15:00,
2013-06-23 04:20:00,63.4,58.5,30.16,SW,215,0.0,1.0,84,0.00,,,0.00,Wunderground v.1.15,2013-06-23 08:20:00,
2013-06-23 04:30:00,63.7,59.1,30.16,South,169,0.0,1.0,85,0.00,,,0.00,Wunderground v.1.15,2013-06-23 08:30:00,
2013-06-23 04:35:00,63.8,59.2,30.15,SSE,167,0.0,1.0,85,0.00,,,0.00,Wunderground v.1.15,2013-06-23 08:35:00,
2013-06-23 04:40:00,63.8,59.2,30.15,SSE,168,0.0,0.0,85,0.00,,,0.00,Wunderground v.1.15,2013-06-23 08:40:00,
2013-06-23 04:50:00,63.9,59.3,30.15,SSE,160,0.0,0.0,85,0.00,,,0.00,Wunderground v.1.15,2013-06-23 08:50:00,
2013-06-23 04:55:00,64.1,59.5,30.15,SW,226,0.0,1.0,85,0.00,,,0.00,Wunderground v.1.15,2013-06-23 08:55:00,
2013-06-23 05:00:00,64.1,59.8,30.16,SW,225,0.0,1.0,86,0.00,,,0.00,Wunderground v.1.15,2013-06-23 09:00:00,
2013-06-23 05:05:00,64.3,60.0,30.16,SSW,203,0.0,1.0,86,0.00,,,0.00,Wunderground v.1.15,2013-06-23 09:05:00,
2013-06-23 05:10:00,64.4,60.1,30.16,SE,128,0.0,1.0,86,0.00,,,0.00,Wunderground v.1.15,2013-06-23 09:10:00,
2013-06-23 05:15:00,64.5,59.9,30.16,SSW,195,0.0,1.0,85,0.00,,,0.00,Wunderground v.1.15,2013-06-23 09:15:00,
2013-06-23 05:25:00,64.5,59.9,30.16,SE,125,0.0,0.0,85,0.00,,,0.00,Wunderground v.1.15,2013-06-23 09:25:00,
2013-06-23 05:30:00,64.6,60.3,30.16,SSW,212,0.0,0.0,86,0.00,,,0.00,Wunderground v.1.15,2013-06-23 09:30:00,
2013-06-23 05:40:00,64.8,60.2,30.16,SSW,210,0.0,0.0,85,0.00,,,0.00,Wunderground v.1.15,2013-06-23 09:40:00,
2013-06-23 05:45:00,64.9,60.3,30.16,SSW,210,0.0,0.0,85,0.00,,,0.00,Wunderground v.1.15,2013-06-23 09:45:00,
2013-06-23 05:50:00,65.2,60.6,30.16,SW,231,0.0,1.0,85,0.00,,,0.00,Wunderground v.1.15,2013-06-23 09:50:00,
2013-06-23 06:00:00,66.4,61.4,30.16,SW,217,0.0,0.0,84,0.00,,,0.00,Wunderground v.1.15,2013-06-23 10:00:00,
2013-06-23 06:05:00,67.4,61.7,30.16,SSW,199,0.0,0.0,82,0.00,,,0.00,Wunderground v.1.15,2013-06-23 10:05:00,
2013-06-23 06:10:00,68.1,61.7,30.16,West,262,0.0,1.0,80,0.00,,,0.00,Wunderground v.1.15,2013-06-23 10:10:00,
2013-06-23 06:15:00,68.5,62.1,30.16,WSW,239,0.0,1.0,80,0.00,,,0.00,Wunderground v.1.15,2013-06-23 10:15:00,
2013-06-23 06:20:00,69.2,62.4,30.16,SSE,159,0.0,0.0,79,0.00,,,0.00,Wunderground v.1.15,2013-06-23 10:20:00,
2013-06-23 06:30:00,70.4,62.5,30.17,WSW,249,0.0,0.0,76,0.00,,,0.00,Wunderground v.1.15,2013-06-23 10:30:00,
2013-06-23 06:35:00,71.1,63.1,30.17,SSW,207,0.0,0.0,76,0.00,,,0.00,Wunderground v.1.15,2013-06-23 10:35:00,
2013-06-23 06:40:00,71.6,63.3,30.17,SSW,202,0.0,1.0,75,0.00,,,0.00,Wunderground v.1.15,2013-06-23 10:40:00,
2013-06-23 06:50:00,71.8,63.8,30.17,NW,319,1.0,1.0,76,0.00,,,0.00,Wunderground v.1.15,2013-06-23 10:50:00,
2013-06-23 06:55:00,72.4,63.6,30.17,South,191,1.0,1.0,74,0.00,,,0.00,Wunderground v.1.15,2013-06-23 10:55:00,
2013-06-23 07:05:00,73.1,64.3,30.17,SSW,207,0.0,1.0,74,0.00,,,0.00,Wunderground v.1.15,2013-06-23 11:05:00,
2013-06-23 07:10:00,73.2,64.8,30.17,SW,215,1.0,2.0,75,0.00,,,0.00,Wunderground v.1.15,2013-06-23 11:10:00,
2013-06-23 07:15:00,74.1,65.7,30.18,South,170,1.0,2.0,75,0.00,,,0.00,Wunderground v.1.15,2013-06-23 11:15:00,
2013-06-23 07:20:00,74.8,65.6,30.18,SW,229,0.0,0.0,73,0.00,,,0.00,Wunderground v.1.15,2013-06-23 11:20:00,
2013-06-23 07:25:00,75.3,65.6,30.18,WSW,252,0.0,2.0,72,0.00,,,0.00,Wunderground v.1.15,2013-06-23 11:25:00,
2013-06-23 07:30:00,75.6,65.9,30.18,SSW,201,0.0,0.0,72,0.00,,,0.00,Wunderground v.1.15,2013-06-23 11:30:00,
2013-06-23 07:40:00,76.0,65.9,30.18,NW,315,1.0,3.0,71,0.00,,,0.00,Wunderground v.1.15,2013-06-23 11:40:00,
2013-06-23 07:45:00,75.3,66.4,30.19,WSW,254,1.0,3.0,74,0.00,,,0.00,Wunderground v.1.15,2013-06-23 11:45:00,
2013-06-23 07:50:00,75.2,66.3,30.19,SSW,204,2.0,2.0,74,0.00,,,0.00,Wunderground v.1.15,2013-06-23 11:50:00,
2013-06-23 08:00:00,75.8,66.9,30.19,West,267,1.0,1.0,74,0.00,,,0.00,Wunderground v.1.15,2013-06-23 12:00:00,
2013-06-23 08:05:00,75.9,67.4,30.19,SE,142,2.0,2.0,75,0.00,,,0.00,Wunderground v.1.15,2013-06-23 12:05:00,
2013-06-23 08:15:00,76.8,67.9,30.19,South,188,1.0,3.0,74,0.00,,,0.00,Wunderground v.1.15,2013-06-23 12:15:00,
2013-06-23 08:20:00,77.0,68.1,30.18,SSE,150,1.0,2.0,74,0.00,,,0.00,Wunderground v.1.15,2013-06-23 12:20:00,
2013-06-23 08:30:00,76.9,68.0,30.18,SW,219,2.0,3.0,74,0.00,,,0.00,Wunderground v.1.15,2013-06-23 12:30:00,
2013-06-23 08:35:00,76.8,68.3,30.18,SE,134,2.0,3.0,75,0.00,,,0.00,Wunderground v.1.15,2013-06-23 12:35:00,
2013-06-23 08:40:00,76.8,68.3,30.19,WNW,297,2.0,2.0,75,0.00,,,0.00,Wunderground v.1.15,2013-06-23 12:40:00,
2013-06-23 08:45:00,77.3,68.8,30.19,SW,225,2.0,2.0,75,0.00,,,0.00,Wunderground v.1.15,2013-06-23 12:45:00,
2013-06-23 08:50:00,77.8,68.8,30.18,SW,222,2.0,2.0,74,0.00,,,0.00,Wunderground v.1.15,2013-06-23 12:50:00,
2013-06-23 08:55:00,78.0,68.6,30.18,SSW,197,2.0,4.0,73,0.00,,,0.00,Wunderground v.1.15,2013-06-23 12:55:00,
2013-06-23 09:00:00,78.0,69.0,30.18,SSW,201,3.0,3.0,74,0.00,,,0.00,Wunderground v.1.15,2013-06-23 13:00:00,
2013-06-23 09:05:00,78.3,69.3,30.18,South,188,2.0,3.0,74,0.00,,,0.00,Wunderground v.1.15,2013-06-23 13:05:00,
2013-06-23 09:15:00,78.6,69.2,30.18,South,181,2.0,4.0,73,0.00,,,0.00,Wunderground v.1.15,2013-06-23 13:15:00,
2013-06-23 09:25:00,79.1,69.7,30.18,SSW,210,2.0,3.0,73,0.00,,,0.00,Wunderground v.1.15,2013-06-23 13:25:00,
2013-06-23 09:30:00,79.3,69.5,30.18,WSW,248,2.0,2.0,72,0.00,,,0.00,Wunderground v.1.15,2013-06-23 13:30:00,
2013-06-23 09:35:00,79.4,70.0,30.18,South,184,2.0,2.0,73,0.00,,,0.00,Wunderground v.1.15,2013-06-23 13:35:00,
2013-06-23 09:45:00,80.2,69.9,30.17,SSW,197,2.0,2.0,71,0.00,,,0.00,Wunderground v.1.15,2013-06-23 13:45:00,
2013-06-23 09:50:00,80.5,70.2,30.17,SW,219,2.0,2.0,71,0.00,,,0.00,Wunderground v.1.15,2013-06-23 13:50:00,
2013-06-23 10:00:00,80.7,70.4,30.17,South,186,3.0,3.0,71,0.00,,,0.00,Wunderground v.1.15,2013-06-23 14:00:00,
2013-06-23 10:05:00,80.8,70.1,30.17,SSW,205,3.0,4.0,70,0.00,,,0.00,Wunderground v.1.15,2013-06-23 14:05:00,
2013-06-23 10:10:00,81.1,70.8,30.17,South,179,3.0,3.0,71,0.00,,,0.00,Wunderground v.1.15,2013-06-23 14:10:00,
2013-06-23 10:15:00,81.3,70.6,30.17,SSW,195,3.0,3.0,70,0.00,,,0.00,Wunderground v.1.15,2013-06-23 14:15:00,
2013-06-23 10:20:00,81.5,70.8,30.16,SE,138,2.0,2.0,70,0.00,,,0.00,Wunderground v.1.15,2013-06-23 14:20:00,
2013-06-23 10:35:00,76.1,67.6,30.16,SSE,148,7.0,9.0,75,0.00,,,0.00,Wunderground v.1.15,2013-06-23 14:35:00,
2013-06-23 10:40:00,75.5,67.4,30.16,SE,131,7.0,7.0,76,0.00,,,0.00,Wunderground v.1.15,2013-06-23 14:40:00,
2013-06-23 10:45:00,75.8,68.1,30.16,SE,139,7.0,8.0,77,0.00,,,0.00,Wunderground v.1.15,2013-06-23 14:45:00,
2013-06-23 10:55:00,76.3,68.6,30.16,SSE,151,7.0,10.0,77,0.00,,,0.00,Wunderground v.1.15,2013-06-23 14:55:00,
2013-06-23 11:05:00,77.3,69.5,30.16,SSE,166,7.0,7.0,77,0.00,,,0.00,Wunderground v.1.15,2013-06-23 15:05:00,
2013-06-23 11:10:00,78.2,70.0,30.16,SE,133,6.0,7.0,76,0.00,,,0.00,Wunderground v.1.15,2013-06-23 15:10:00,
2013-06-23 11:15:00,78.1,69.5,30.15,SE,146,6.0,9.0,75,0.00,,,0.00,Wunderground v.1.15,2013-06-23 15:15:00,
2013-06-23 11:20:00,78.0,69.4,30.15,SE,145,6.0,8.0,75,0.00,,,0.00,Wunderground v.1.15,2013-06-23 15:20:00,
2013-06-23 11:25:00,77.9,69.3,30.15,SSE,148,7.0,8.0,75,0.00,,,0.00,Wunderground v.1.15,2013-06-23 15:25:00,
2013-06-23 11:30:00,77.7,69.1,30.15,SSE,155,8.0,8.0,75,0.00,,,0.00,Wunderground v.1.15,2013-06-23 15:30:00,
2013-06-23 11:35:00,77.5,69.3,30.15,SSE,166,9.0,9.0,76,0.00,,,0.00,Wunderground v.1.15,2013-06-23 15:35:00,
2013-06-23 11:45:00,77.4,69.2,30.15,SSE,150,7.0,8.0,76,0.00,,,0.00,Wunderground v.1.15,2013-06-23 15:45:00,
2013-06-23 11:55:00,77.0,69.2,30.15,SE,139,7.0,8.0,77,0.00,,,0.00,Wunderground v.1.15,2013-06-23 15:55:00,
2013-06-23 12:00:00,76.7,68.6,30.15,South,177,7.0,7.0,76,0.00,,,0.00,Wunderground v.1.15,2013-06-23 16:00:00,
2013-06-23 12:05:00,77.0,69.2,30.15,WSW,239,6.0,7.0,77,0.00,,,0.00,Wunderground v.1.15,2013-06-23 16:05:00,
2013-06-23 12:10:00,77.7,69.9,30.15,SSE,157,5.0,5.0,77,0.00,,,0.00,Wunderground v.1.15,2013-06-23 16:10:00,
2013-06-23 12:20:00,78.6,70.4,30.15,SSW,198,5.0,5.0,76,0.00,,,0.00,Wunderground v.1.15,2013-06-23 16:20:00,
2013-06-23 12:25:00,78.9,70.7,30.14,South,172,5.0,8.0,76,0.00,,,0.00,Wunderground v.1.15,2013-06-23 16:25:00,
2013-06-23 12:30:00,78.5,70.3,30.14,SSW,209,5.0,6.0,76,0.00,,,0.00,Wunderground v.1.15,2013-06-23 16:30:00,
2013-06-23 12:40:00,77.8,70.0,30.14,SSW,207,6.0,7.0,77,0.00,,,0.00,Wunderground v.1.15,2013-06-23 16:40:00,
2013-06-23 12:45:00,77.4,70.4,30.14,SSE,156,6.0,7.0,79,0.00,,,0.00,Wunderground v.1.15,2013-06-23 16:45:00,
2013-06-23 12:55:00,77.9,70.9,30.14,SSE,155,5.0,6.0,79,0.00,,,0.00,Wunderground v.1.15,2013-06-23 16:55:00,
2013-06-23 13:10:00,78.4,71.3,30.13,SSE,165,5.0,5.0,79,0.00,,,0.00,Wunderground v.1.15,2013-06-23 17:10:00,
2013-06-23 13:15:00,78.5,71.4,30.13,SE,142,5.0,7.0,79,0.00,,,0.00,Wunderground v.1.15,2013-06-23 17:15:00,
2013-06-23 13:20:00,78.3,71.2,30.13,SSE,163,6.0,9.0,79,0.00,,,0.00,Wunderground v.1.15,2013-06-23 17:20:00,
2013-06-23 13:25:00,77.9,71.6,30.13,South,169,7.0,9.0,81,0.00,,,0.00,Wunderground v.1.15,2013-06-23 17:25:00,
2013-06-23 13:30:00,77.9,72.0,30.13,SE,129,7.0,8.0,82,0.00,,,0.00,Wunderground v.1.15,2013-06-23 17:30:00,
2013-06-23 13:35:00,78.0,72.1,30.13,South,170,6.0,8.0,82,0.00,,,0.00,Wunderground v.1.15,2013-06-23 17:35:00,
2013-06-23 13:40:00,77.7,71.4,30.13,WSW,243,6.0,6.0,81,0.00,,,0.00,Wunderground v.1.15,2013-06-23 17:40:00,
2013-06-23 13:45:00,78.0,72.4,30.13,South,186,5.0,6.0,83,0.00,,,0.00,Wunderground v.1.15,2013-06-23 17:45:00,
2013-06-23 13:50:00,78.4,72.4,30.12,WSW,238,5.0,5.0,82,0.00,,,0.00,Wunderground v.1.15,2013-06-23 17:50:00,
2013-06-23 13:55:00,78.2,71.9,30.12,South,181,5.0,5.0,81,0.00,,,0.00,Wunderground v.1.15,2013-06-23 17:55:00,
2013-06-23 14:05:00,77.7,71.8,30.12,SSE,156,5.0,10.0,82,0.00,,,0.00,Wunderground v.1.15,2013-06-23 18:05:00,
2013-06-23 14:10:00,77.5,71.6,30.12,SW,219,6.0,9.0,82,0.00,,,0.00,Wunderground v.1.15,2013-06-23 18:10:00,
2013-06-23 14:20:00,76.7,70.8,30.12,South,188,5.0,5.0,82,0.00,,,0.00,Wunderground v.1.15,2013-06-23 18:20:00,
2013-06-23 14:25:00,77.2,71.6,30.12,South,172,5.0,5.0,83,0.00,,,0.00,Wunderground v.1.15,2013-06-23 18:25:00,
2013-06-23 14:30:00,77.0,71.1,30.12,SSW,204,6.0,6.0,82,0.00,,,0.00,Wunderground v.1.15,2013-06-23 18:30:00,
2013-06-23 14:40:00,77.2,72.0,30.11,South,184,6.0,6.0,84,0.00,,,0.00,Wunderground v.1.15,2013-06-23 18:40:00,
2013-06-23 14:45:00,77.4,71.5,30.11,SW,233,5.0,6.0,82,0.00,,,0.00,Wunderground v.1.15,2013-06-23 18:45:00,
2013-06-23 14:50:00,76.5,70.9,30.11,South,181,5.0,7.0,83,0.00,,,0.00,Wunderground v.1.15,2013-06-23 18:50:00,
2013-06-23 14:55:00,75.7,70.5,30.11,ESE,114,5.0,7.0,84,0.00,,,0.00,Wunderground v.1.15,2013-06-23 18:55:00,
2013-06-23 15:00:00,75.5,71.0,30.11,SW,225,6.0,6.0,86,0.00,,,0.00,Wunderground v.1.15,2013-06-23 19:00:00,
2013-06-23 15:05:00,75.6,71.1,30.10,SW,228,6.0,6.0,86,0.00,,,0.00,Wunderground v.1.15,2013-06-23 19:05:00,
2013-06-23 15:15:00,75.9,71.4,30.10,SSE,165,7.0,11.0,86,0.00,,,0.00,Wunderground v.1.15,2013-06-23 19:15:00,
2013-06-23 15:20:00,75.6,71.1,30.10,SSE,165,7.0,7.0,86,0.00,,,0.00,Wunderground v.1.15,2013-06-23 19:20:00,
2013-06-23 15:30:00,74.5,70.4,30.09,SSE,159,6.0,6.0,87,0.00,,,0.00,Wunderground v.1.15,2013-06-23 19:30:00,
2013-06-23 15:35:00,74.3,70.5,30.09,SE,139,6.0,6.0,88,0.00,,,0.00,Wunderground v.1.15,2013-06-23 19:35:00,
2013-06-23 15:40:00,74.7,71.2,30.09,SSW,200,6.0,6.0,89,0.00,,,0.00,Wunderground v.1.15,2013-06-23 19:40:00,
2013-06-23 15:50:00,75.7,71.2,30.09,SW,233,6.0,6.0,86,0.00,,,0.00,Wunderground v.1.15,2013-06-23 19:50:00,
2013-06-23 15:55:00,75.9,71.4,30.09,SE,138,6.0,6.0,86,0.00,,,0.00,Wunderground v.1.15,2013-06-23 19:55:00,
2013-06-23 16:00:00,75.9,71.4,30.09,ESE,115,5.0,5.0,86,0.00,,,0.00,Wunderground v.1.15,2013-06-23 20:00:00,
2013-06-23 16:05:00,75.9,71.8,30.09,SE,138,5.0,5.0,87,0.00,,,0.00,Wunderground v.1.15,2013-06-23 20:05:00,
2013-06-23 16:10:00,76.3,71.8,30.09,South,176,5.0,7.0,86,0.00,,,0.00,Wunderground v.1.15,2013-06-23 20:10:00,
2013-06-23 16:20:00,77.6,72.4,30.09,SE,129,5.0,5.0,84,0.00,,,0.00,Wunderground v.1.15,2013-06-23 20:20:00,
2013-06-23 16:30:00,77.1,71.5,30.08,ESE,113,6.0,6.0,83,0.00,,,0.00,Wunderground v.1.15,2013-06-23 20:30:00,
2013-06-23 16:35:00,76.5,71.3,30.08,ESE,117,5.0,6.0,84,0.00,,,0.00,Wunderground v.1.15,2013-06-23 20:35:00,
2013-06-23 16:40:00,76.0,71.2,30.08,South,169,5.0,5.0,85,0.00,,,0.00,Wunderground v.1.15,2013-06-23 20:40:00,
2013-06-23 16:45:00,75.4,70.9,30.08,SE,145,5.0,6.0,86,0.00,,,0.00,Wunderground v.1.15,2013-06-23 20:45:00,
2013-06-23 16:50:00,75.5,71.4,30.08,South,183,4.0,9.0,87,0.00,,,0.00,Wunderground v.1.15,2013-06-23 20:50:00,
2013-06-23 16:55:00,75.4,71.3,30.08,SSW,203,4.0,9.0,87,0.00,,,0.00,Wunderground v.1.15,2013-06-23 20:55:00,
2013-06-23 17:00:00,75.3,71.2,30.07,SW,218,4.0,7.0,87,0.00,,,0.00,Wunderground v.1.15,2013-06-23 21:00:00,
2013-06-23 17:05:00,75.6,71.5,30.07,South,178,5.0,7.0,87,0.00,,,0.00,Wunderground v.1.15,2013-06-23 21:05:00,
2013-06-23 17:10:00,75.9,71.8,30.07,SE,133,5.0,5.0,87,0.00,,,0.00,Wunderground v.1.15,2013-06-23 21:10:00,
2013-06-23 17:15:00,75.8,71.3,30.07,SW,225,5.0,5.0,86,0.00,,,0.00,Wunderground v.1.15,2013-06-23 21:15:00,
2013-06-23 17:20:00,75.6,71.5,30.07,SSW,205,4.0,7.0,87,0.00,,,0.00,Wunderground v.1.15,2013-06-23 21:20:00,
2013-06-23 17:25:00,75.3,70.8,30.07,South,172,4.0,7.0,86,0.00,,,0.00,Wunderground v.1.15,2013-06-23 21:25:00,
2013-06-23 17:30:00,74.5,70.4,30.07,SW,224,5.0,5.0,87,0.00,,,0.00,Wunderground v.1.15,2013-06-23 21:30:00,
2013-06-23 17:40:00,73.5,70.1,30.07,South,180,4.0,4.0,89,0.00,,,0.00,Wunderground v.1.15,2013-06-23 21:40:00,
2013-06-23 17:45:00,73.2,70.1,30.07,ESE,121,4.0,4.0,90,0.00,,,0.00,Wunderground v.1.15,2013-06-23 21:45:00,
2013-06-23 17:50:00,73.4,70.0,30.06,South,177,5.0,5.0,89,0.00,,,0.00,Wunderground v.1.15,2013-06-23 21:50:00,
2013-06-23 17:55:00,73.5,70.1,30.06,SSE,151,5.0,5.0,89,0.00,,,0.00,Wunderground v.1.15,2013-06-23 21:55:00,
2013-06-23 18:05:00,73.7,70.3,30.06,SE,145,5.0,5.0,89,0.00,,,0.00,Wunderground v.1.15,2013-06-23 22:05:00,
2013-06-23 18:10:00,73.6,70.2,30.06,South,169,5.0,5.0,89,0.00,,,0.00,Wunderground v.1.15,2013-06-23 22:10:00,
2013-06-23 18:15:00,73.2,70.1,30.06,South,178,5.0,5.0,90,0.00,,,0.00,Wunderground v.1.15,2013-06-23 22:15:00,
2013-06-23 18:20:00,72.6,69.8,30.06,SE,137,5.0,5.0,91,0.00,,,0.00,Wunderground v.1.15,2013-06-23 22:20:00,
2013-06-23 18:25:00,72.2,69.4,30.06,SSE,163,5.0,11.0,91,0.00,,,0.00,Wunderground v.1.15,2013-06-23 22:25:00,
2013-06-23 18:35:00,72.1,70.0,30.06,SSE,166,4.0,5.0,93,0.00,,,0.00,Wunderground v.1.15,2013-06-23 22:35:00,
2013-06-23 18:40:00,72.5,70.4,30.06,SSW,204,4.0,4.0,93,0.00,,,0.00,Wunderground v.1.15,2013-06-23 22:40:00,
2013-06-23 18:50:00,72.9,70.4,30.06,SW,221,4.0,4.0,92,0.00,,,0.00,Wunderground v.1.15,2013-06-23 22:50:00,
2013-06-23 18:55:00,72.8,70.3,30.06,SSW,211,4.0,4.0,92,0.00,,,0.00,Wunderground v.1.15,2013-06-23 22:55:00,
2013-06-23 19:00:00,72.5,70.0,30.06,WSW,242,5.0,5.0,92,0.00,,,0.00,Wunderground v.1.15,2013-06-23 23:00:00,
2013-06-23 19:10:00,72.3,70.2,30.06,SW,215,4.0,4.0,93,0.00,,,0.00,Wunderground v.1.15,2013-06-23 23:10:00,
2013-06-23 19:15:00,72.1,70.0,30.07,SSW,204,4.0,4.0,93,0.00,,,0.00,Wunderground v.1.15,2013-06-23 23:15:00,
2013-06-23 19:20:00,72.0,69.9,30.07,South,179,3.0,3.0,93,0.00,,,0.00,Wunderground v.1.15,2013-06-23 23:20:00,
2013-06-23 19:25:00,72.1,70.0,30.06,SW,218,3.0,6.0,93,0.00,,,0.00,Wunderground v.1.15,2013-06-23 23:25:00,
2013-06-23 19:30:00,72.1,70.0,30.06,South,171,4.0,4.0,93,0.00,,,0.00,Wunderground v.1.15,2013-06-23 23:30:00,
2013-06-23 19:35:00,72.0,69.9,30.06,South,174,3.0,9.0,93,0.00,,,0.00,Wunderground v.1.15,2013-06-23 23:35:00,
2013-06-23 19:45:00,71.8,69.7,30.06,SSE,153,4.0,4.0,93,0.00,,,0.00,Wunderground v.1.15,2013-06-23 23:45:00,
2013-06-23 19:50:00,71.7,69.6,30.06,SE,134,3.0,3.0,93,0.00,,,0.00,Wunderground v.1.15,2013-06-23 23:50:00,
2013-06-23 20:00:00,71.5,69.7,30.06,SSW,201,3.0,3.0,94,0.00,,,0.00,Wunderground v.1.15,2013-06-24 00:00:00,
2013-06-23 20:05:00,71.5,69.7,30.06,SSE,167,3.0,3.0,94,0.00,,,0.00,Wunderground v.1.15,2013-06-24 00:05:00,
2013-06-23 20:10:00,71.4,69.6,30.06,South,173,2.0,2.0,94,0.00,,,0.00,Wunderground v.1.15,2013-06-24 00:10:00,
2013-06-23 20:20:00,71.3,69.5,30.06,SW,215,1.0,1.0,94,0.00,,,0.00,Wunderground v.1.15,2013-06-24 00:20:00,
2013-06-23 20:25:00,71.2,69.4,30.07,SW,228,0.0,1.0,94,0.00,,,0.00,Wunderground v.1.15,2013-06-24 00:25:00,
2013-06-23 20:30:00,71.2,69.7,30.07,SSE,149,0.0,1.0,95,0.00,,,0.00,Wunderground v.1.15,2013-06-24 00:30:00,
2013-06-23 20:35:00,71.2,69.7,30.06,SSE,162,1.0,1.0,95,0.00,,,0.00,Wunderground v.1.15,2013-06-24 00:35:00,
2013-06-23 20:40:00,71.2,69.7,30.06,SSE,159,1.0,1.0,95,0.00,,,0.00,Wunderground v.1.15,2013-06-24 00:40:00,
2013-06-23 20:50:00,71.7,70.5,30.06,SSE,150,1.0,1.0,96,0.00,,,0.00,Wunderground v.1.15,2013-06-24 00:50:00,
2013-06-23 20:55:00,72.0,70.8,30.07,WSW,249,1.0,1.0,96,0.00,,,0.00,Wunderground v.1.15,2013-06-24 00:55:00,
2013-06-23 21:05:00,72.4,71.2,30.06,ESE,122,0.0,0.0,96,0.12,,,0.04,Wunderground v.1.15,2013-06-24 01:05:00,
2013-06-23 21:10:00,72.6,71.4,30.06,West,266,0.0,0.0,96,0.09,,,0.04,Wunderground v.1.15,2013-06-24 01:10:00,
2013-06-23 21:15:00,72.8,71.6,30.06,SSW,208,0.0,0.0,96,0.08,,,0.05,Wunderground v.1.15,2013-06-24 01:15:00,
2013-06-23 21:25:00,72.7,71.5,30.07,NNE,25,0.0,0.0,96,0.06,,,0.06,Wunderground v.1.15,2013-06-24 01:25:00,
2013-06-23 21:30:00,72.7,71.5,30.07,NNE,27,0.0,0.0,96,0.06,,,0.06,Wunderground v.1.15,2013-06-24 01:30:00,
2013-06-23 21:35:00,72.7,71.8,30.07,South,190,0.0,0.0,97,0.04,,,0.06,Wunderground v.1.15,2013-06-24 01:35:00,
2013-06-23 21:40:00,72.8,71.9,30.07,South,190,0.0,0.0,97,0.00,,,0.06,Wunderground v.1.15,2013-06-24 01:40:00,
2013-06-23 21:45:00,72.7,71.8,30.07,SSW,204,0.0,0.0,97,0.00,,,0.06,Wunderground v.1.15,2013-06-24 01:45:00,
2013-06-23 21:55:00,72.8,71.9,30.07,SW,231,0.0,0.0,97,0.00,,,0.06,Wunderground v.1.15,2013-06-24 01:55:00,
2013-06-23 22:35:00,72.6,71.7,30.07,South,181,0.0,0.0,97,0.00,,,0.06,Wunderground v.1.15,2013-06-24 02:35:00,
2013-06-23 22:45:00,72.5,71.6,30.07,SSW,195,0.0,0.0,97,0.00,,,0.06,Wunderground v.1.15,2013-06-24 02:45:00,
2013-06-23 22:55:00,72.5,71.6,30.07,South,176,0.0,0.0,97,0.00,,,0.06,Wunderground v.1.15,2013-06-24 02:55:00,
2013-06-23 23:00:00,72.4,71.5,30.07,SW,215,0.0,1.0,97,0.00,,,0.06,Wunderground v.1.15,2013-06-24 03:00:00,
2013-06-23 23:05:00,72.4,71.5,30.06,SW,218,0.0,1.0,97,0.00,,,0.06,Wunderground v.1.15,2013-06-24 03:05:00,
2013-06-23 23:10:00,72.3,71.4,30.07,SW,231,0.0,0.0,97,0.00,,,0.06,Wunderground v.1.15,2013-06-24 03:10:00,
2013-06-23 23:15:00,72.2,71.3,30.06,SW,215,0.0,0.0,97,0.00,,,0.06,Wunderground v.1.15,2013-06-24 03:15:00,
2013-06-23 23:20:00,72.2,71.3,30.06,SW,218,0.0,0.0,97,0.00,,,0.06,Wunderground v.1.15,2013-06-24 03:20:00,
2013-06-23 23:25:00,72.2,71.3,30.06,SW,231,0.0,0.0,97,0.00,,,0.06,Wunderground v.1.15,2013-06-24 03:25:00,
2013-06-23 23:35:00,72.1,71.5,30.06,SW,224,0.0,1.0,98,0.00,,,0.06,Wunderground v.1.15,2013-06-24 03:35:00,
2013-06-23 23:40:00,72.2,71.6,30.06,SW,229,0.0,0.0,98,0.00,,,0.06,Wunderground v.1.15,2013-06-24 03:40:00,
2013-06-23 23:50:00,72.1,71.5,30.06,SW,226,0.0,0.0,98,0.00,,,0.06,Wunderground v.1.15,2013-06-24 03:50:00,
2013-06-23 23:55:00,72.2,71.6,30.06,South,177,0.0,1.0,98,0.00,,,0.06,Wunderground v.1.15,2013-06-24 03:55:00,